| time (UTC) | temp F | wind direction | speed MPH | gust MPH | rain 1hr in | rain 24hr in | rain mn in | humidity % | barometer mb |
| 20260503040547 | 55 | 0.0 | 0.0 | 0.00 | 0.05 | 0.05 | 92 | 1014.0 | |
| 20260503035545 | 55 | 0.0 | 0.0 | 0.00 | 0.05 | 0.05 | 92 | 1014.1 | |
| 20260503034542 | 55 | 0.0 | 0.0 | 0.00 | 0.05 | 0.05 | 92 | 1014.0 | |
| 20260503033540 | 55 | 0.0 | 0.0 | 0.00 | 0.05 | 0.05 | 92 | 1014.0 | |
| 20260503032537 | 56 | 0.0 | 0.0 | 0.00 | 0.05 | 0.05 | 92 | 1014.1 | |
| 20260503031535 | 56 | 0.0 | 0.0 | 0.00 | 0.05 | 0.05 | 92 | 1014.0 | |
| 20260503030532 | 56 | 0.0 | 0.0 | 0.00 | 0.05 | 0.05 | 92 | 1014.2 | |
| 20260503025530 | 55 | 0.0 | 0.0 | 0.00 | 0.05 | 0.05 | 91 | 1014.2 | |
| 20260503024527 | 56 | 0.0 | 0.0 | 0.00 | 0.05 | 0.05 | 91 | 1014.3 | |
| 20260503023524 | 56 | 0.0 | 0.0 | 0.00 | 0.05 | 0.05 | 91 | 1014.4 | |
| 20260503022522 | 56 | 0.0 | 0.0 | 0.00 | 0.05 | 0.05 | 91 | 1014.3 | |
| 20260503021519 | 56 | 0.0 | 0.0 | 0.00 | 0.05 | 0.05 | 91 | 1014.3 | |
| 20260503020517 | 56 | 0.0 | 0.0 | 0.00 | 0.05 | 0.05 | 91 | 1014.4 | |
| 20260503015614 | 56 | 0.0 | 0.0 | 0.00 | 0.05 | 0.05 | 91 | 1014.5 | |
| 20260503014612 | 56 | 0.0 | 0.0 | 0.00 | 0.05 | 0.05 | 91 | 1014.7 | |
| 20260503013609 | 56 | 0.0 | 2.0 | 0.00 | 0.05 | 0.05 | 91 | 1014.7 | |
| 20260503012607 | 56 | 0.0 | 2.0 | 0.01 | 0.05 | 0.05 | 91 | 1014.9 | |
| 20260503011604 | 56 | 0.0 | 2.0 | 0.01 | 0.05 | 0.05 | 90 | 1015.0 | |
| 20260503010602 | 56 | 0.0 | 0.0 | 0.04 | 0.05 | 0.05 | 90 | 1015.1 | |
| 20260503005559 | 57 | 0.0 | 0.0 | 0.04 | 0.05 | 0.05 | 90 | 1015.3 | |
| 20260503004556 | 57 | 0.0 | 0.0 | 0.04 | 0.05 | 0.05 | 89 | 1015.6 | |
| 20260503003554 | 57 | 0.0 | 0.0 | 0.05 | 0.05 | 0.05 | 89 | 1015.8 | |
| 20260503002551 | 57 | 0.0 | 2.0 | 0.04 | 0.04 | 0.04 | 88 | 1015.8 | |
| 20260503001549 | 58 | 0.0 | 0.0 | 0.04 | 0.04 | 0.04 | 87 | 1016.0 | |
| 20260503000546 | 58 | 0.0 | 0.0 | 0.01 | 0.01 | 0.01 | 86 | 1016.5 | |
| 20260502235544 | 58 | 0.0 | 0.0 | 0.01 | 0.01 | 0.01 | 86 | 1016.9 | |
| 20260502234541 | 58 | 0.0 | 2.0 | 0.01 | 0.01 | 0.01 | 85 | 1017.1 | |
| 20260502233538 | 58 | 0.0 | 2.0 | 0.00 | 0.00 | 0.00 | 82 | 1016.9 | |
| 20260502232536 | 57 | 0.0 | 0.0 | 0.00 | 0.00 | 0.00 | 82 | 1016.7 | |
| 20260502231533 | 57 | 180 | 0.0 | 2.0 | 0.00 | 0.00 | 0.00 | 82 | 1016.2 |
| 20260502230531 | 58 | 0.0 | 0.0 | 0.00 | 0.00 | 0.00 | 81 | 1016.0 | |
| 20260502225528 | 58 | 0.0 | 0.0 | 0.00 | 0.00 | 0.00 | 81 | 1016.1 | |
| 20260502224526 | 58 | 0.0 | 0.0 | 0.00 | 0.00 | 0.00 | 81 | 1016.3 | |
| 20260502223523 | 58 | 0.0 | 0.0 | 0.00 | 0.00 | 0.00 | 81 | 1016.2 | |
| 20260502222521 | 58 | 0.0 | 0.0 | 0.00 | 0.00 | 0.00 | 82 | 1016.1 | |
| 20260502221518 | 58 | 0.0 | 0.0 | 0.00 | 0.00 | 0.00 | 82 | 1016.1 | |
| 20260502220516 | 58 | 0.0 | 0.0 | 0.00 | 0.00 | 0.00 | 82 | 1016.3 | |
| 20260502215613 | 58 | 0.0 | 0.0 | 0.00 | 0.00 | 0.00 | 81 | 1016.2 | |
| 20260502214611 | 58 | 0.0 | 0.0 | 0.00 | 0.00 | 0.00 | 80 | 1016.3 | |
| 20260502213608 | 58 | 0.0 | 0.0 | 0.00 | 0.00 | 0.00 | 80 | 1016.2 | |
| 20260502212605 | 58 | 0.0 | 0.0 | 0.00 | 0.00 | 0.00 | 79 | 1016.4 | |
| 20260502211603 | 58 | 0.0 | 0.0 | 0.00 | 0.00 | 0.00 | 79 | 1016.4 | |
| 20260502210600 | 58 | 0.0 | 0.0 | 0.00 | 0.00 | 0.00 | 78 | 1016.6 | |
| 20260502205558 | 58 | 0.0 | 0.0 | 0.00 | 0.00 | 0.00 | 77 | 1016.7 | |
| 20260502204555 | 58 | 0.0 | 0.0 | 0.00 | 0.00 | 0.00 | 77 | 1016.7 | |
| 20260502203553 | 58 | 0.0 | 0.0 | 0.00 | 0.00 | 0.00 | 76 | 1016.7 | |
| 20260502202550 | 58 | 0.0 | 0.0 | 0.00 | 0.00 | 0.00 | 74 | 1016.7 | |
| 20260502201547 | 59 | 0.0 | 0.0 | 0.00 | 0.00 | 0.00 | 72 | 1016.5 | |
| 20260502200545 | 60 | 0.0 | 0.0 | 0.00 | 0.00 | 0.00 | 71 | 1016.7 | |
| 20260502195542 | 61 | 0.0 | 0.0 | 0.00 | 0.00 | 0.00 | 69 | 1016.7 | |
| 20260502194540 | 62 | 0.0 | 0.0 | 0.00 | 0.00 | 0.00 | 67 | 1016.7 | |
| 20260502193537 | 63 | 0.0 | 0.0 | 0.00 | 0.00 | 0.00 | 65 | 1016.6 | |
| 20260502192535 | 63 | 0.0 | 0.0 | 0.00 | 0.00 | 0.00 | 64 | 1016.6 | |
| 20260502191532 | 63 | 0.0 | 0.0 | 0.00 | 0.00 | 0.00 | 63 | 1016.6 | |
| 20260502190530 | 64 | 0.0 | 0.0 | 0.00 | 0.00 | 0.00 | 62 | 1016.6 | |
| 20260502185527 | 64 | 0.0 | 2.0 | 0.00 | 0.00 | 0.00 | 60 | 1016.6 | |
| 20260502184524 | 65 | 0.0 | 2.0 | 0.00 | 0.00 | 0.00 | 59 | 1016.6 | |
| 20260502183522 | 65 | 0.0 | 0.0 | 0.00 | 0.00 | 0.00 | 57 | 1016.5 | |
| 20260502182519 | 66 | 0.0 | 0.0 | 0.00 | 0.00 | 0.00 | 55 | 1016.6 | |
| 20260502181517 | 66 | 0.0 | 2.0 | 0.00 | 0.00 | 0.00 | 54 | 1016.4 | |
| 20260502180615 | 67 | 135 | 0.0 | 2.0 | 0.00 | 0.00 | 0.00 | 53 | 1016.5 |
| 20260502163551 | 78 | 0.0 | 2.0 | 0.00 | 0.00 | 0.00 | 41 | 1015.9 | |
| 20260502162549 | 78 | 0.0 | 2.0 | 0.00 | 0.00 | 0.00 | 40 | 1015.9 | |
| 20260502161546 | 79 | 0.0 | 2.0 | 0.00 | 0.00 | 0.00 | 39 | 1016.0 | |
| 20260502160544 | 79 | 113 | 0.0 | 2.0 | 0.00 | 0.00 | 0.00 | 38 | 1016.1 |
| 20260502151531 | 80 | 180 | 0.0 | 2.0 | 0.00 | 0.00 | 0.00 | 37 | 1016.4 |
| 20260502150528 | 80 | 45 | 0.0 | 2.0 | 0.00 | 0.00 | 0.00 | 37 | 1016.5 |
| 20260502130558 | 82 | 0.0 | 2.0 | 0.00 | 0.00 | 0.00 | 30 | 1017.8 | |
| 20260502123550 | 82 | 348 | 1.0 | 4.0 | 0.00 | 0.00 | 0.00 | 29 | 1018.2 |
| 20260502122548 | 82 | 156 | 1.0 | 4.0 | 0.00 | 0.00 | 0.00 | 30 | 1018.3 |
| 20260502121545 | 80 | 190 | 1.0 | 4.0 | 0.00 | 0.00 | 0.00 | 33 | 1018.3 |
| 20260502120542 | 81 | 180 | 1.0 | 4.0 | 0.00 | 0.00 | 0.00 | 33 | 1018.4 |
| 20260502115540 | 81 | 293 | 0.0 | 4.0 | 0.00 | 0.00 | 0.00 | 33 | 1018.4 |
| 20260502114537 | 81 | 144 | 1.0 | 6.0 | 0.00 | 0.00 | 0.00 | 33 | 1018.6 |
| 20260502113535 | 81 | 195 | 2.0 | 7.0 | 0.00 | 0.00 | 0.00 | 34 | 1018.7 |
| 20260502112532 | 80 | 197 | 2.0 | 7.0 | 0.00 | 0.00 | 0.00 | 34 | 1018.8 |
| 20260502111530 | 80 | 184 | 2.0 | 7.0 | 0.00 | 0.00 | 0.00 | 34 | 1019.0 |
| 20260502110527 | 80 | 152 | 1.0 | 4.0 | 0.00 | 0.00 | 0.00 | 35 | 1019.2 |
| 20260502105524 | 80 | 175 | 3.0 | 9.0 | 0.00 | 0.00 | 0.00 | 35 | 1019.2 |
| 20260502104522 | 80 | 231 | 1.0 | 6.0 | 0.00 | 0.00 | 0.00 | 35 | 1019.2 |
| 20260502103519 | 81 | 189 | 1.0 | 8.0 | 0.00 | 0.00 | 0.00 | 35 | 1019.4 |
| 20260502102517 | 81 | 189 | 1.0 | 4.0 | 0.00 | 0.00 | 0.00 | 35 | 1019.5 |
| 20260502101614 | 81 | 168 | 2.0 | 4.0 | 0.00 | 0.00 | 0.00 | 35 | 1019.7 |
| 20260502100612 | 81 | 180 | 0.0 | 2.0 | 0.00 | 0.00 | 0.00 | 36 | 1019.9 |
| 20260502090557 | 77 | 158 | 0.0 | 2.0 | 0.00 | 0.00 | 0.00 | 40 | 1020.5 |
| 20260502071528 | 71 | 0 | 0.0 | 4.0 | 0.00 | 0.00 | 0.00 | 47 | 1021.4 |
| 20260502070526 | 70 | 181 | 1.0 | 4.0 | 0.00 | 0.00 | 0.00 | 47 | 1021.3 |
| 20260502065523 | 69 | 180 | 1.0 | 4.0 | 0.00 | 0.00 | 0.00 | 48 | 1021.4 |
| 20260502064521 | 68 | 184 | 1.0 | 4.0 | 0.00 | 0.00 | 0.00 | 49 | 1021.5 |
| 20260502063518 | 68 | 186 | 0.0 | 4.0 | 0.00 | 0.00 | 0.00 | 50 | 1021.5 |
| 20260502062516 | 67 | 187 | 1.0 | 4.0 | 0.00 | 0.00 | 0.00 | 52 | 1021.4 |
| 20260502061613 | 66 | 180 | 1.0 | 6.0 | 0.00 | 0.00 | 0.00 | 52 | 1021.5 |
| 20260502060610 | 65 | 180 | 1.0 | 4.0 | 0.00 | 0.00 | 0.00 | 55 | 1021.5 |
| 20260502055608 | 63 | 180 | 0.0 | 4.0 | 0.00 | 0.00 | 0.00 | 56 | 1021.6 |
| 20260502054605 | 63 | 180 | 1.0 | 4.0 | 0.00 | 0.00 | 0.00 | 56 | 1021.6 |
| 20260502053603 | 62 | 180 | 1.0 | 4.0 | 0.00 | 0.00 | 0.00 | 57 | 1021.5 |
| 20260502052600 | 61 | 180 | 1.0 | 2.0 | 0.00 | 0.00 | 0.00 | 58 | 1021.7 |
| 20260502051558 | 60 | 180 | 1.0 | 4.0 | 0.00 | 0.00 | 0.00 | 59 | 1021.7 |
| 20260502050555 | 59 | 180 | 1.0 | 4.0 | 0.00 | 0.00 | 0.00 | 59 | 1021.7 |
| 20260502045553 | 58 | 180 | 1.0 | 4.0 | 0.00 | 0.00 | 0.00 | 60 | 1021.8 |
| 20260502044550 | 56 | 180 | 1.0 | 2.0 | 0.00 | 0.00 | 0.00 | 61 | 1021.8 |
| 20260502043547 | 55 | 180 | 0.0 | 2.0 | 0.00 | 0.00 | 0.00 | 63 | 1021.8 |
| 20260502042545 | 53 | 0.0 | 0.0 | 0.00 | 0.00 | 0.00 | 66 | 1021.8 | |
| 20260502041542 | 52 | 180 | 1.0 | 2.0 | 0.00 | 0.00 | 0.00 | 67 | 1021.9 |